When you browse on this site, cookies collect data to enhance your experience and personalize the content and advertising you see.
Visit our Privacy Policy to learn more. By continuing to use the site, you agree to this use of cookies and data.
  • In Austria
  • List of Countries
  • For 7 days
  • Water Temperature
  • Weather Map
  • News
  • Weather Widgets
  • user-avatar
    Login

    Hourly Weather Chakhansur

    Today, 17 February, Monday

    Time Temperature Precipitation Wind Pressure Humidity
    00:00 +10°C° 0 mm 1 mps 725 mmHg 40%
    01:00 +10°C° 0 mm 1 mps 725 mmHg 41%
    02:00 +10°C° 0 mm 1 mps 725 mmHg 43%
    03:00 +9°C° 0 mm 1 mps 724 mmHg 44%
    04:00 +9°C° 0 mm 1 mps 724 mmHg 45%
    05:00 +8°C° 0 mm 0 mps 725 mmHg 46%
    06:00 +7°C° 0 mm 0 mps 725 mmHg 47%
    07:00 +7°C° 0 mm 0 mps 726 mmHg 48%
    08:00 +9°C° 0 mm 0 mps 726 mmHg 42%
    09:00 +11°C° 0 mm 0 mps 726 mmHg 36%
    10:00 +13°C° 0 mm 0 mps 727 mmHg 29%
    11:00 +14°C° 0 mm 0 mps 726 mmHg 26%
    12:00 +15°C° 0 mm 0 mps 726 mmHg 24%
    13:00 +16°C° 0 mm 0 mps 725 mmHg 21%
    14:00 +18°C° 0 mm 1 mps 725 mmHg 21%
    15:00 +19°C° 0 mm 1 mps 724 mmHg 21%
    16:00 +19°C° 0 mm 1 mps 723 mmHg 21%
    17:00 +18°C° 0 mm 1 mps 723 mmHg 24%
    18:00 +18°C° 0 mm 1 mps 724 mmHg 28%
    19:00 +16°C° 0 mm 1 mps 724 mmHg 31%
    20:00 +15°C° 0 mm 1 mps 724 mmHg 31%
    21:00 +15°C° 0 mm 2 mps 723 mmHg 32%
    22:00 +14°C° 0 mm 2 mps 723 mmHg 32%
    23:00 +14°C° 0 mm 2 mps 723 mmHg 33%

    Tomorrow, 18 February, Tuesday

    Time Temperature Precipitation Wind Pressure Humidity
    00:00 +14°C° 0 mm 2 mps 723 mmHg 35%
    01:00 +13°C° 0 mm 2 mps 723 mmHg 36%
    02:00 +13°C° 0 mm 2 mps 722 mmHg 37%
    03:00 +12°C° 0 mm 2 mps 722 mmHg 38%
    04:00 +12°C° 0 mm 2 mps 722 mmHg 39%
    05:00 +12°C° 0 mm 2 mps 722 mmHg 39%
    06:00 +12°C° 0 mm 2 mps 722 mmHg 39%
    07:00 +12°C° 0 mm 1 mps 723 mmHg 39%
    08:00 +12°C° 0 mm 3 mps 723 mmHg 38%
    09:00 +13°C° 0 mm 4 mps 724 mmHg 37%
    10:00 +15°C° 0 mm 5 mps 724 mmHg 36%
    11:00 +16°C° 0 mm 5 mps 724 mmHg 34%
    12:00 +16°C° 0 mm 5 mps 723 mmHg 32%
    13:00 +17°C° 0 mm 6 mps 723 mmHg 29%
    14:00 +17°C° 0 mm 6 mps 723 mmHg 29%
    15:00 +17°C° 0 mm 6 mps 722 mmHg 29%
    16:00 +17°C° 0 mm 6 mps 722 mmHg 29%
    17:00 +16°C° 0 mm 6 mps 722 mmHg 33%
    18:00 +15°C° 0 mm 7 mps 723 mmHg 37%
    19:00 +12°C° 0 mm 7 mps 723 mmHg 41%
    20:00 +12°C° 0 mm 8 mps 723 mmHg 44%
    21:00 +11°C° 0 mm 8 mps 723 mmHg 47%
    22:00 +10°C° 0 mm 9 mps 724 mmHg 50%
    23:00 +8°C° 0 mm 9 mps 723 mmHg 51%

    Day after tomorrow, 19 February, Wednesday

    Time Temperature Precipitation Wind Pressure Humidity
    00:00 +8°C° 0 mm 10 mps 723 mmHg 52%
    01:00 +7°C° 0 mm 10 mps 723 mmHg 54%
    02:00 +6°C° 0 mm 11 mps 723 mmHg 54%
    03:00 +6°C° 0 mm 11 mps 723 mmHg 55%
    04:00 +4°C° 0 mm 11 mps 723 mmHg 56%
    05:00 +4°C° 0 mm 11 mps 723 mmHg 56%
    06:00 +3°C° 0 mm 11 mps 723 mmHg 57%
    07:00 +3°C° 0 mm 10 mps 723 mmHg 57%
    08:00 +4°C° 0 mm 11 mps 723 mmHg 51%
    09:00 +7°C° 0 mm 11 mps 723 mmHg 45%
    10:00 +8°C° 0 mm 11 mps 723 mmHg 40%
    11:00 +9°C° 0 mm 11 mps 723 mmHg 37%
    12:00 +11°C° 0 mm 11 mps 722 mmHg 33%
    13:00 +12°C° 0 mm 11 mps 721 mmHg 30%
    14:00 +12°C° 0 mm 10 mps 721 mmHg 29%
    15:00 +13°C° 0 mm 9 mps 720 mmHg 28%
    16:00 +13°C° 0 mm 9 mps 720 mmHg 27%
    17:00 +12°C° 0 mm 8 mps 720 mmHg 30%
    18:00 +11°C° 0 mm 6 mps 720 mmHg 32%
    19:00 +10°C° 0 mm 5 mps 721 mmHg 35%
    20:00 +9°C° 0 mm 5 mps 721 mmHg 37%
    21:00 +8°C° 0 mm 5 mps 721 mmHg 39%
    22:00 +8°C° 0 mm 5 mps 721 mmHg 41%
    23:00 +7°C° 0 mm 4 mps 721 mmHg 42%

    20 February, Thursday

    Time Temperature Precipitation Wind Pressure Humidity
    00:00 +6°C° 0 mm 4 mps 721 mmHg 44%
    01:00 +7°C° 0 mm 3 mps 720 mmHg 46%
    02:00 +5°C° 0 mm 3 mps 720 mmHg 48%
    03:00 +6°C° 0 mm 2 mps 720 mmHg 50%
    04:00 +6°C° 0 mm 2 mps 720 mmHg 52%
    05:00 +6°C° 0 mm 2 mps 720 mmHg 54%
    06:00 +5°C° 0 mm 2 mps 721 mmHg 55%
    07:00 +6°C° 0 mm 1 mps 721 mmHg 56%
    08:00 +8°C° 0 mm 1 mps 721 mmHg 51%
    09:00 +9°C° 0 mm 1 mps 722 mmHg 45%
    10:00 +10°C° 0 mm 0 mps 722 mmHg 40%
    11:00 +12°C° 0 mm 1 mps 721 mmHg 36%
    12:00 +14°C° 0 mm 1 mps 721 mmHg 32%
    13:00 +15°C° 0 mm 1 mps 721 mmHg 28%
    14:00 +16°C° 0 mm 1 mps 720 mmHg 26%
    15:00 +18°C° 0 mm 1 mps 720 mmHg 25%
    16:00 +19°C° 0 mm 1 mps 720 mmHg 24%
    17:00 +18°C° 0 mm 1 mps 720 mmHg 26%
    18:00 +17°C° 0 mm 2 mps 720 mmHg 28%
    19:00 +16°C° 0 mm 2 mps 720 mmHg 30%
    20:00 +16°C° 0 mm 2 mps 720 mmHg 31%
    21:00 +16°C° 0 mm 2 mps 720 mmHg 31%
    22:00 +16°C° 0 mm 3 mps 720 mmHg 31%
    23:00 +16°C° 0 mm 3 mps 720 mmHg 32%

    21 February, Friday

    Time Temperature Precipitation Wind Pressure Humidity
    00:00 +16°C° 0 mm 2 mps 720 mmHg 34%
    01:00 +15°C° 0 mm 2 mps 719 mmHg 35%
    02:00 +14°C° 0 mm 4 mps 719 mmHg 37%
    03:00 +13°C° 0 mm 5 mps 718 mmHg 39%
    04:00 +13°C° 0 mm 6 mps 718 mmHg 41%
    05:00 +13°C° 0 mm 6 mps 718 mmHg 41%
    06:00 +13°C° 0 mm 6 mps 718 mmHg 42%
    07:00 +13°C° 0 mm 6 mps 718 mmHg 42%
    08:00 +15°C° 0 mm 5 mps 719 mmHg 37%
    09:00 +17°C° 0 mm 5 mps 719 mmHg 32%
    10:00 +20°C° 0 mm 5 mps 720 mmHg 27%
    17:00 +24°C° 0 mm 2 mps 718 mmHg 19%
    18:00 +23°C° 0 mm 2 mps 718 mmHg 21%
    19:00 +21°C° 0 mm 2 mps 719 mmHg 24%
    20:00 +20°C° 0 mm 2 mps 719 mmHg 25%
    21:00 +20°C° 0 mm 2 mps 719 mmHg 26%
    22:00 +19°C° 0 mm 3 mps 719 mmHg 28%
    23:00 +19°C° 0 mm 2 mps 719 mmHg 30%

    22 February, Saturday

    Time Temperature Precipitation Wind Pressure Humidity
    00:00 +18°C° 0 mm 2 mps 719 mmHg 32%
    01:00 +18°C° 0 mm 1 mps 719 mmHg 35%
    02:00 +17°C° 0 mm 2 mps 719 mmHg 36%
    03:00 +16°C° 0 mm 2 mps 719 mmHg 37%
    04:00 +16°C° 0 mm 2 mps 719 mmHg 37%
    05:00 +16°C° 0 mm 3 mps 719 mmHg 39%
    06:00 +16°C° 0 mm 3 mps 719 mmHg 40%
    07:00 +14°C° 0 mm 3 mps 720 mmHg 41%
    08:00 +18°C° 0 mm 3 mps 720 mmHg 36%
    09:00 +20°C° 0 mm 3 mps 721 mmHg 31%
    10:00 +23°C° 0 mm 2 mps 721 mmHg 27%
    11:00 +24°C° 0 mm 2 mps 721 mmHg 25%
    12:00 +25°C° 0 mm 2 mps 720 mmHg 23%
    13:00 +26°C° 0 mm 2 mps 720 mmHg 21%
    14:00 +27°C° 0 mm 2 mps 720 mmHg 21%
    15:00 +27°C° 0 mm 2 mps 719 mmHg 22%
    16:00 +28°C° 0 mm 2 mps 719 mmHg 22%
    17:00 +27°C° 0 mm 3 mps 719 mmHg 24%
    18:00 +26°C° 0 mm 3 mps 718 mmHg 26%
    19:00 +25°C° 0 mm 3 mps 718 mmHg 28%
    20:00 +24°C° 0 mm 3 mps 718 mmHg 29%
    21:00 +23°C° 0 mm 4 mps 718 mmHg 30%
    22:00 +22°C° 0 mm 4 mps 718 mmHg 31%
    23:00 +22°C° 0 mm 4 mps 718 mmHg 33%
    Show more